Flag for U.S.A. Weather past 2 weeks in Raleigh, North Carolina, U.S.A.

Now
38 °F

Light rain. Fog.


Feels Like: 28 °F
Forecast: 31 / 60 °F
Wind: 20 mph from Northeast

Location: Raleigh-Durham International Airport

Current Time: Mar 5, 2015 at 4:00:03 PM

Latest Report: Mar 5, 2015 at 2:51 PM


Visibility: 2 mi

Pressure: 30.05 "Hg

Humidity: 86%

Dew point: 34 °F

Location of RaleighLocation

Historic Weather in Raleigh — Graph

°F

Raleigh temperature yesterday

Maximum temperature yesterday: 75 °F (at 4:51 PM)
Minimum temperature yesterday: 38 °F (at 12:51 AM)
Average temperature yesterday: 56 °F

Past Weeks' High & Low Weather Summary

 TemperatureHumidityPressure
High75 °F (Mar 4, 4:51 PM)97% (Mar 2, 4:51 AM)30.81 "Hg (Mar 2, 4:51 AM)
Low7 °F (Feb 20, 5:51 AM)26% (Feb 20, 2:51 PM)29.70 "Hg (Feb 26, 3:51 AM)
Average35 °F68%30.22 "Hg
* Reported Feb 18 2:51 PM — Mar 5 2:51 PM, Raleigh, Weather by CustomWeather, © 2015

Note: Actual official high and low records may vary slightly from our data, if they occured in-between our weather recording intervals... More about our weather records

Advertising

Raleigh weather history for previous 24 hours

 ConditionsComfort  
Time TempWeatherWind HumidityBarometerVisibility
2:51 PM
Thu, Mar 5
38 °FLight rain. Fog.20 mph86%30.05 "Hg2 mi
1:51 PM39 °FLight rain. Fog.14 mph86%30.03 "Hg2 mi
1:03 PM39 °FLight rain. Fog.20 mph87%29.98 "Hg3 mi
12:51 PM39 °FLight rain. Fog.15 mph86%29.98 "Hg1 mi
11:51 AM42 °FRain. Fog.12 mph89%29.96 "Hg1 mi
10:51 AM46 °FRain. Fog.15 mph86%29.95 "Hg1 mi
9:51 AM55 °FRain. Fog.8 mph90%29.93 "Hg1 mi
8:51 AM64 °FLight rain. Cloudy.5 mph81%29.88 "Hg8 mi
7:51 AM59 °FMostly cloudy.No wind87%29.89 "Hg10 mi
6:51 AM63 °FMostly cloudy.5 mph84%29.88 "Hg10 mi
6:04 AM63 °FMostly cloudy.8 mph83%29.88 "Hg10 mi
5:51 AM63 °FMostly cloudy.8 mph84%29.87 "Hg10 mi
4:51 AM64 °FPassing clouds.10 mph81%29.85 "Hg10 mi
3:51 AM64 °FLight rain. Mostly cloudy.12 mph81%29.85 "Hg10 mi
2:51 AM65 °FLight rain. Passing clouds.15 mph78%29.85 "Hg10 mi
1:51 AM66 °FPassing clouds.16 mph75%29.87 "Hg10 mi
12:51 AM64 °FPassing clouds.13 mph75%29.87 "Hg10 mi
11:51 PM
Wed, Mar 4
66 °FPassing clouds.18 mph68%29.87 "Hg10 mi
10:51 PM66 °FPassing clouds.14 mph63%29.88 "Hg10 mi
9:51 PM66 °FPartly cloudy.14 mph63%29.88 "Hg10 mi
8:51 PM64 °FPassing clouds.7 mph68%29.88 "Hg10 mi
7:51 PM66 °FPassing clouds.12 mph61%29.88 "Hg10 mi
6:51 PM69 °FPassing clouds.14 mph55%29.85 "Hg10 mi
5:51 PM72 °FPartly sunny.20 mph52%29.84 "Hg10 mi
4:51 PM75 °FPartly sunny.18 mph52%29.84 "Hg10 mi
Weather by CustomWeather, © 2015

See weather overviewHow to use our weather pages